Location: Hauppauge
(40.8260°N, 73.2030°W)
Time: 03:17:00
(UTC-05:00)

Daily predictions for brighter satellites

Satellite Brightness Start Highest point End
(mag) Time Altitude Azimuth Time Altitude Azimuth Time Altitude Azimuth
Cosmos 1980 Rocket 3.1 04:14:52 40° SSE 04:14:52 40° SSE 04:18:25 10° SSE
Timation 2 Rocket 4.2 04:28:20 34° SSW 04:31:36 82° ESE 04:38:30 10° NNE
USA 267 3.2 04:36:08 10° NE 04:42:30 57° NW 04:42:46 57° NW
Cosmos 1538 Rocket 4.0 04:42:17 67° S 04:42:58 82° ESE 04:48:17 10° NNE
COSMO-SKYMED 1 3.6 04:39:16 10° SE 04:43:22 44° ENE 04:44:39 34° NNE
Meteor 2-4 Rocket 3.5 04:47:13 77° WSW 04:47:13 77° WSW 04:52:43 10° S
CZ-2C R/B 4.2 04:47:07 10° S 04:50:17 47° S 04:50:17 47° S
SL-16 R/B 2.6 04:51:39 30° N 04:54:27 61° ENE 05:00:02 10° SE
Okean-O 3.1 04:52:39 10° NNE 04:57:04 61° E 05:01:26 10° S
Okean 1 Rocket 3.5 04:53:48 10° S 04:58:05 61° E 05:02:27 10° NNE
Cosmos 2322 Rocket 2.5 04:56:14 28° N 04:59:14 65° ENE 05:04:53 10° SSE
CZ-4C R/B 2.0 05:01:47 60° W 05:02:19 63° NW 05:08:14 10° NNE
Meteor 2-20 4.4 04:57:17 10° SSW 05:03:14 56° W 05:09:13 10° N
Meteor 1-11 Rocket 4.0 05:00:39 10° SSW 05:06:57 46° WNW 05:11:59 10° N
Meteor 1-4 Rocket 2.9 05:03:07 10° S 05:06:53 66° E 05:10:39 10° NNE
BREEZE-M DEB (TANK) 3.0 05:10:42 63° WNW 05:11:16 89° SSW 05:17:22 10° ESE
ATLAS CENTAUR R/B 4.5 05:10:52 10° SE 05:12:45 13° ESE 05:14:36 10° E
SKYMED 3 4.4 05:09:03 10° SSE 05:13:23 84° W 05:15:04 37° NNW
SeaSat 1 2.6 05:09:15 10° NNE 05:13:59 47° WNW 05:13:59 47° WNW
Feng Yun 1-1 Rocket 4.2 05:08:24 10° NNE 05:14:14 84° WNW 05:19:52 10° SSW
PAYLOAD A 4.2 05:08:55 10° NNE 05:14:22 79° ESE 05:19:41 10° S
EO 1 Del DPAF 3.1 05:12:41 10° SSE 05:16:30 90° ENE 05:17:32 47° NNW
USA 234 3.3 05:10:19 10° SE 05:16:52 80° NE 05:20:47 27° NW
Cosmos 1184 Rocket 3.9 05:16:19 22° NNE 05:18:05 43° ENE 05:21:17 10° SSE
CZ-2C R/B 2.7 05:17:08 10° NNE 05:21:56 64° E 05:26:33 10° S
Cosmos 2082 Rocket 4.3 05:25:06 11° NNW 05:25:06 11° NNW 05:25:24 10° NNW
Meteor 1-5 Rocket 4.2 05:17:52 10° SSW 05:23:07 50° WNW 05:28:18 10° N
deb Kosmos-1763 4.5 05:24:47 45° NNW 05:24:47 45° NNW 05:27:41 10° N
Cosmos 1500 3.0 05:27:20 10° SSW 05:31:11 72° W 05:35:01 10° N
SKYMED 2 3.7 05:27:10 10° S 05:31:24 52° W 05:33:15 30° NW
NOAA 6 4.1 05:32:17 10° N 05:37:13 50° WNW 05:42:10 10° SW
Nadezhda 4 Rocket 4.4 05:35:52 10° SW 05:41:26 36° WNW 05:47:02 10° N
Cosmos 1271 Rocket 4.2 05:42:41 10° SSE 05:46:11 38° E 05:49:42 10° NNE
Cosmos 2333 Rocket 4.4 05:48:10 10° N 05:52:22 20° NE 05:56:32 10° E
Cosmos 389 Rocket 3.0 05:49:40 10° S 05:53:15 64° E 05:56:50 10° NNE
Cosmos 2285 Rocket 3.9 05:47:14 10° SSW 05:53:32 73° WNW 05:59:51 10° NNE
Cosmos 1455 Rocket 3.9 05:49:13 10° S 05:53:33 54° E 05:57:54 10° NNE
COSMOS 2441 4.3 05:49:52 10° N 05:54:43 79° WNW 05:59:30 10° SSW
Cosmos 2360 Rocket 2.4 05:49:15 10° NNW 05:54:57 77° ENE 06:00:37 10° SSE
COSMOS 2428 4.1 05:50:34 10° N 05:55:50 36° ENE 06:01:03 10° SE
Cosmos 1980 Rocket 4.0 05:56:43 13° WSW 05:56:43 13° WSW 05:58:26 10° WSW
Cosmos 1066 Rocket 4.0 05:52:27 10° NNW 05:57:49 75° W 06:03:14 10° S
Cosmos 1544 Rocket 4.0 05:53:31 10° S 05:57:56 66° E 06:02:21 10° NNE
SMAP 4.0 05:54:17 10° NNE 05:58:51 52° E 06:03:22 10° S
Cosmos 1680 Rocket 3.5 05:56:34 10° SSW 06:01:41 58° WNW 06:06:50 10° NNE
Cosmos 1025 Rocket 3.7 05:59:07 14° NNW 06:02:14 32° W 06:06:04 10° SSW
Cosmos 1666 2.8 05:59:31 10° S 06:03:20 78° E 06:07:09 10° N
Cosmos 2219 Rocket 4.0 05:58:44 10° N 06:03:31 27° NE 06:08:17 10° ESE
Okean 1-7 Rocket 4.0 05:59:57 10° NNW 06:04:16 44° W 06:08:35 10° SSW
CZ-4 R/B 2.8 06:00:19 10° NNE 06:04:20 43° E 06:08:22 10° S
IDEFIX/ARIANE 42P 3.1 06:02:57 10° N 06:07:39 35° WNW 06:12:22 10° SW
BREEZE-M DEB (TANK) 2.9 06:06:51 21° WNW 06:08:08 39° NNW 06:12:19 10° NE
S3M 4.0 06:06:49 10° N 06:13:03 90° NE 06:19:20 10° S
COSMO-SKYMED 1 4.2 06:17:06 10° SW 06:19:45 16° W 06:21:51 12° WNW
Cosmos 1371 Rocket 4.0 06:14:57 10° NNW 06:20:11 85° WSW 06:25:21 10° SSE
Aureole 2 Rocket 3.5 06:17:49 10° N 06:20:57 38° ENE 06:23:50 10° SE
Cosmos 2237 Rocket 4.3 06:17:11 10° N 06:21:22 21° NE 06:25:31 10° E
Cosmos 1975 3.5 06:19:38 10° SW 06:23:11 31° WNW 06:26:47 10° NNW
USA 267 4.3 06:19:29 10° NE 06:24:39 26° NNW 06:29:49 10° WNW
ATLAS 5 CENTAUR R/B 3.8 06:21:06 10° NNW 06:26:21 32° NE 06:32:02 10° ESE
Thor Agena Rocket 3.7 06:22:48 10° S 06:27:41 50° W 06:32:38 10° NNW
CSL-04 Debris 4.2 06:23:02 10° NNE 06:28:30 86° WNW 06:33:59 10° SSW
Cosmos 2219 4.0 06:26:58 10° S 06:32:31 59° ESE 06:38:03 10° NNE
Okean-O 4.3 06:30:52 10° NNW 06:33:01 13° WNW 06:35:10 10° W
SL-16 R/B 3.6 06:34:14 10° WNW 06:37:58 18° W 06:41:43 10° SW
Meteor 2-9 Rocket 4.4 06:32:26 10° S 06:38:17 85° E 06:44:05 10° N
Cosmos 2266 Rocket 4.0 06:33:02 10° S 06:39:08 89° WNW 06:45:13 10° N
Cosmos 1655 Rocket 4.4 06:36:06 10° SW 06:41:55 41° WNW 06:47:51 10° N
Cosmos 2322 Rocket 3.7 06:39:07 10° WNW 06:42:40 17° W 06:46:13 10° SW
CSL-04 Rocket 3.8 06:39:17 10° N 06:44:44 57° WNW 06:50:06 10° SSW
IRAS Rocket 4.3 06:40:43 10° N 06:46:12 65° WNW 06:51:42 10° SSW
Cosmos 1553 Rocket 4.4 06:40:39 10° NNW 06:46:29 43° W 06:52:12 10° SSW
